This demonstration page uses our WeatherBlox Daily Observations layout. Learn more.

Left ArrowRight Arrow

39.12711, -84.51439

Hourly Observations for September 28, 2018

Temp ( °F °C ) Dew Point ( °F °C ) Humidity (%) Winds ( mph kmh ) Pressure ( in mb ) Visibility ( mi km ) Precip ( " mm )
12:04 am 00:04 Clear with Mist and Fog 52 11.1 52 11.1 100 100 Calm 30.06 1018 1 1 0.00 0.00
12:19 am 00:19 Mostly Clear with Mist and Fog 52 11.1 52 11.1 100 100 Calm 30.06 1018 1 2 0.00 0.00
12:24 am 00:24 Mostly Cloudy with Mist and Fog 52 11.1 52 11.1 100 100 Calm 30.06 1018 1 1 0.00 0.00
12:46 am 00:46 Partly Cloudy with Mist and Fog 52 11.1 52 11.1 100 100 Calm 30.06 1018 1 2 0.00 0.00
12:53 am 00:53 Mostly Cloudy with Fog 52 11.1 52 11.1 100 100 Calm 30.06 1018 1 1 0.00 0.00
1:15 am 01:15 Mostly Cloudy with Fog 52 11.1 52 11.1 100 100 Calm 30.06 1018 1 1 0.00 0.00
1:29 am 01:29 Mostly Cloudy with Fog 51 10.6 51 10.6 100 100 Calm 30.06 1018 0 0 0.00 0.00
1:53 am 01:53 Mostly Cloudy with Fog 52 11.1 52 11.1 100 100 Calm 30.06 1018 0 0 0.00 0.00
2:53 am 02:53 Cloudy with Fog 51 10.6 51 10.6 100 100 Calm 30.08 1019 0 0 0.00 0.00
3:03 am 03:03 Cloudy with Fog 52 11.1 52 11.1 100 100 Calm 30.09 1019 1 1 0.00 0.00
3:21 am 03:21 Cloudy with Fog 52 11.1 52 11.1 100 100 Calm 30.09 1019 1 1 0.00 0.00
3:26 am 03:26 Mostly Cloudy with Mist and Fog 52 11.1 52 11.1 100 100 Calm 30.09 1019 1 2 0.00 0.00
3:37 am 03:37 Mostly Cloudy with Fog 52 11.1 52 11.1 100 100 Calm 30.09 1019 1 1 0.00 0.00
3:46 am 03:46 Mostly Cloudy with Fog 52 11.1 52 11.1 100 100 E 3 6 30.09 1019 0 0 0.00 0.00
3:53 am 03:53 Mostly Cloudy with Fog 52 11.1 52 11.1 100 100 Calm 30.08 1019 0 0 0.00 0.00
4:53 am 04:53 Mostly Cloudy with Fog 52 11.1 52 11.1 100 100 Calm 30.09 1019 0 0 0.00 0.00
5:53 am 05:53 Mostly Cloudy with Fog 52 11.1 52 11.1 100 100 Calm 30.11 1020 0 0 0.00 0.00
6:53 am 06:53 Mostly Cloudy with Fog 52 11.1 52 11.1 100 100 Calm 30.13 1020 0 0 0.00 0.00
7:53 am 07:53 Mostly Cloudy with Fog 52 11.1 52 11.1 100 100 Calm 30.15 1021 0 0 0.00 0.00
8:53 am 08:53 Mostly Cloudy with Fog 52 11.1 52 11.1 100 100 Calm 30.16 1021 1 1 0.00 0.00
9:04 am 09:04 Cloudy with Mist and Fog 52 11.1 52 11.1 100 100 Calm 30.15 1021 2 3 0.00 0.00
9:24 am 09:24 Cloudy with Mist and Fog 53 11.7 53 11.7 100 100 SE 3 6 30.18 1022 3 5 0.00 0.00
9:53 am 09:53 Mostly Cloudy with Mist and Fog 54 12.2 54 12.2 100 100 S 3 6 30.16 1021 4 6 0.00 0.00
10:25 am 10:25 Partly Cloudy 56 13.3 55 12.8 97 97 SSW 5 7 30.18 1022 10 16 0.00 0.00
10:53 am 10:53 Sunny 58 14.4 55 12.8 90 90 VRB 6 9 30.17 1022 10 16 0.00 0.00
11:53 am 11:53 Sunny 63 17.2 57 13.9 81 81 S 5 7 30.17 1022 10 16 0.00 0.00
12:53 pm 12:53 Sunny 67 19.4 56 13.3 68 68 VRB 3 6 30.15 1021 10 16 0.00 0.00
1:53 pm 13:53 Sunny 70 21.1 58 14.4 66 66 S 7 11 30.15 1021 10 16 0.00 0.00
2:53 pm 14:53 Partly Cloudy 71 21.7 55 12.8 57 57 VRB 7 11 30.13 1020 10 16 0.00 0.00
3:53 pm 15:53 Partly Cloudy 72 22.2 55 12.8 55 55 SSW 9 15 30.12 1020 10 16 0.00 0.00
4:53 pm 16:53 Mostly Sunny 72 22.2 55 12.8 55 55 SSW 10 17 30.12 1020 10 16 0.00 0.00
5:53 pm 17:53 Mostly Sunny 71 21.7 57 13.9 61 61 SW 8 13 30.12 1020 10 16 0.00 0.00
6:53 pm 18:53 Mostly Sunny 67 19.4 56 13.3 68 68 SW 7 11 30.13 1020 10 16 0.00 0.00
7:53 pm 19:53 Clear 60 15.6 57 13.9 90 90 Calm 30.15 1021 10 16 0.00 0.03
8:53 pm 20:53 Clear 59 15 59 15 100 100 Calm 30.17 1022 10 16 0.00 0.00
9:53 pm 21:53 Clear 58 14.4 57 13.9 97 97 Calm 30.18 1022 10 16 0.00 0.00
10:53 pm 22:53 Clear 56 13.3 56 13.3 100 100 Calm 30.20 1023 10 16 0.00 0.00
11:53 pm 23:53 Clear with Mist and Fog 55 12.8 55 12.8 100 100 Calm 30.21 1023 3 4 0.00 0.00

Powered by AerisWeather